Wind_Speed
48 69 51 62 71 61 62 57 55 54 49 56 58 55 65 58 48 49 52 47 45 40 38 37 36 34 32 29 28 27 27 26 24 24 24 25 25 23 23 25 25 25 26 28
43 65 39 63 59 60 59 52 37 26 49 54 46 47 61 66 57 48 50 47 45 42 40 38 36 34 32 31 30 28 27 26 26 26 25 26 25 26 26 27 28 29 30 32
30 59 51 53 54 48 58 73 50 22 33 48 50 57 55 69 65 56 47 45 43 42 42 38 37 35 34 32 29 27 26 28 27 24 26 27 27 27 28 29 31 33 34 35
43 34 42 54 60 48 56 53 42 28 33 44 62 60 60 54 61 67 54 51 49 46 43 40 39 37 33 32 30 29 28 27 26 27 26 26 28 29 31 32 34 35 35 37
41 22 38 55 57 55 49 52 50 31 33 43 49 58 62 66 63 62 55 55 52 45 43 42 39 39 36 35 34 32 31 30 28 27 27 29 30 33 34 35 35 36 38 40
44 26 27 41 43 47 48 31 28 30 33 42 48 55 66 64 57 57 58 51 51 46 44 41 42 42 39 39 38 37 36 34 31 31 30 32 34 36 35 36 36 38 41 45
43 34 24 22 41 47 51 23 19 19 33 43 49 52 56 46 61 66 59 54 51 47 52 50 46 44 42 42 42 42 39 37 35 34 35 37 38 38 37 39 40 42 46 50
30 33 29 32 37 47 36 23 19 17 21 42 39 38 47 51 48 55 50 53 52 47 50 54 38 44 37 43 45 47 44 41 39 39 39 39 38 40 38 40 42 45 47 53
28 36 30 26 35 46 48 24 14 18 21 26 39 45 46 46 46 47 51 53 52 50 49 47 48 37 38 41 48 48 46 43 40 36 37 37 38 35 41 43 41 51 54 55
29 35 29 23 27 43 33 21 11 16 21 23 24 36 45 42 38 44 43 53 52 55 56 54 51 47 41 32 36 39 40 38 38 35 35 36 27 35 42 47 51 55 53 54
35 35 28 30 38 42 32 20 10 12 21 13 21 22 32 43 31 37 35 37 40 51 48 52 47 51 54 44 35 32 34 35 37 30 40 42 46 41 45 49 43 58 55 55
36 38 29 32 34 37 21 20 17 11 17 19 22 23 24 40 35 35 33 30 32 31 33 34 37 42 44 52 54 48 47 49 48 40 37 43 45 40 45 55 56 53 42 39
34 36 32 37 33 31 22 12 12 17 14 18 21 21 26 31 32 31 31 31 28 29 28 26 26 28 32 35 38 35 40 38 28 38 40 43 47 50 58 56 45 44 33 35
38 39 35 31 31 25 23 20 14 19 18 12 22 22 19 24 27 30 33 32 31 28 26 22 23 26 29 29 25 27 26 30 29 32 40 44 49 39 33 36 35 34 37 40
39 37 37 34 41 30 29 29 11 9 16 13 9 13 13 20 22 21 25 28 27 24 20 18 18 19 20 22 28 28 25 25 33 34 24 33 29 32 32 32 36 38 41 43
35 38 35 39 40 27 24 16 16 9 9 9 12 11 10 12 14 14 11 13 14 14 14 14 15 14 15 16 18 23 29 30 24 22 23 26 28 32 35 38 40 42 45 48
29 36 39 37 36 28 19 20 17 18 20 17 14 15 13 12 13 9 11 12 9 11 12 13 14 12 10 12 13 16 18 20 21 23 26 28 31 35 38 42 44 46 49 51
28 31 35 35 33 29 28 27 22 19 23 26 21 22 17 15 13 14 13 13 13 15 15 15 13 14 14 14 17 18 19 21 23 26 29 33 36 38 41 46 48 50 51 50
31 31 32 32 32 32 34 27 29 22 15 20 17 24 19 15 15 14 13 13 13 13 13 13 12 13 18 19 19 19 21 24 27 32 36 37 39 45 48 51 52 52 52 49
34 33 33 35 31 29 31 26 28 22 12 18 23 20 16 16 11 8 5 13 13 15 13 13 18 20 21 22 22 23 25 28 32 37 39 43 48 49 51 53 54 51 50 54
39 36 35 35 32 30 27 24 19 20 16 13 12 11 10 9 8 8 8 9 17 20 19 22 24 25 23 24 26 29 32 35 40 43 46 48 50 50 49 48 49 53 57 60
38 37 36 36 32 28 24 17 19 15 21 14 13 16 16 16 18 21 19 17 20 24 26 27 27 27 27 28 30 33 38 41 45 47 48 48 46 46 48 52 57 61 65 68
36 37 36 36 35 30 22 17 16 13 12 12 12 12 14 16 18 18 19 20 25 28 29 30 33 36 34 33 37 40 45 47 46 44 44 44 47 51 55 60 64 69 69 61
34 38 36 34 36 33 23 20 21 18 16 15 14 11 11 12 15 17 21 27 29 29 32 36 38 34 36 39 43 46 48 45 42 43 46 50 54 59 64 66 59 51 51 53
28 36 35 33 35 31 19 23 18 16 15 15 12 8 8 11 16 21 25 27 28 32 34 31 35 39 44 45 45 42 37 39 43 47 52 57 62 61 54 52 53 53 54 57
23 24 26 30 32 29 27 26 21 18 17 13 11 11 14 16 18 18 19 23 27 32 36 41 43 43 42 39 34 37 41 46 50 56 59 56 52 51 52 54 54 57 60 62
Wind_Direction
197 192 213 203 208 211 216 219 220 223 210 214 213 216 211 208 209 219 225 221 220 214 210 214 215 212 212 216 223 227 229 233 234 233 235 240 243 246 253 261 265 271 277 284
191 186 190 208 207 208 212 201 205 207 212 210 207 205 213 216 211 214 218 219 219 215 214 215 219 217 218 219 221 226 230 232 232 233 237 244 247 253 258 264 271 276 281 285
182 200 207 196 197 206 215 211 230 212 205 211 202 202 210 213 213 214 215 218 222 218 217 216 221 220 220 222 224 227 231 234 235 238 240 245 252 258 264 269 274 280 284 288
176 178 206 204 199 200 216 213 219 234 212 213 207 210 211 212 209 217 216 217 218 219 218 218 219 222 223 226 228 229 232 237 238 241 244 251 258 262 266 272 277 281 287 288
174 182 196 198 209 209 212 221 226 235 206 208 214 216 213 215 221 216 214 218 214 218 221 221 223 229 226 229 231 231 233 236 239 244 247 251 257 263 269 274 279 283 285 289
175 147 180 211 214 213 217 224 222 222 201 210 211 208 212 219 214 215 216 222 225 215 222 223 228 227 228 233 236 236 237 239 241 245 249 256 262 267 270 276 280 284 286 288
200 172 137 170 203 209 216 215 213 208 205 208 211 214 207 207 215 223 224 224 226 219 225 229 229 222 226 231 236 237 239 240 243 246 251 256 260 264 270 274 279 282 286 290
193 208 173 157 184 200 193 190 178 166 188 210 201 211 215 214 220 215 215 215 214 224 229 229 220 221 234 236 237 237 237 239 242 250 252 257 264 267 271 276 281 285 290 292
182 191 195 172 167 196 197 192 174 141 163 181 201 202 210 206 209 214 218 215 213 223 227 238 238 238 234 243 241 234 237 240 247 248 255 264 270 268 275 283 293 288 294 299
178 188 193 199 182 189 188 174 150 146 153 161 175 203 207 207 220 217 212 215 217 221 225 233 240 240 245 250 238 235 237 236 253 261 253 259 270 268 285 289 293 292 292 295
162 165 178 199 212 191 197 206 207 130 133 143 147 170 195 189 191 210 211 214 219 223 228 232 237 241 246 240 244 241 243 242 243 249 260 262 271 288 294 291 276 284 288 286
160 163 159 182 211 214 221 215 216 158 138 139 153 148 177 190 199 203 207 197 196 206 217 228 234 241 247 247 252 259 259 262 265 272 253 277 278 282 277 288 279 276 283 296
170 175 181 156 176 184 185 195 188 161 129 141 136 141 162 171 183 193 195 194 202 207 201 206 213 229 237 249 253 258 261 259 246 261 279 287 288 284 281 276 277 292 310 308
184 175 182 188 202 211 194 196 198 175 168 123 135 127 132 161 172 182 189 195 199 203 217 222 228 236 242 246 254 252 259 274 271 277 279 277 278 263 302 296 303 307 304 302
189 187 182 179 176 155 165 172 167 158 173 148 135 152 142 135 138 153 182 192 198 202 204 209 218 227 231 228 239 253 264 264 264 268 271 275 291 314 309 304 302 300 301 300
192 196 185 180 191 207 206 201 206 195 183 172 161 165 135 134 137 132 134 171 192 201 201 201 209 214 225 234 242 247 253 261 288 293 302 304 304 304 306 306 299 303 301 298
190 195 194 195 181 170 178 180 188 200 196 197 190 181 187 172 162 165 164 178 193 207 214 219 224 226 239 244 256 263 272 272 285 292 297 302 306 303 300 301 300 297 295 296
193 191 192 197 205 196 191 192 189 190 206 209 211 190 184 180 195 180 180 196 210 219 222 233 248 252 255 268 270 270 270 280 285 292 296 300 302 300 301 304 299 295 296 297
192 188 187 187 195 193 202 202 189 168 168 185 180 192 205 203 190 199 221 227 229 228 237 241 246 250 252 252 258 264 276 284 289 294 299 303 298 300 299 298 295 296 296 295
193 187 184 186 188 188 194 200 201 184 147 147 164 166 187 172 158 186 216 221 227 233 236 257 254 249 252 254 262 272 284 291 294 298 299 299 299 295 294 294 293 293 294 295
191 187 182 183 190 193 193 198 206 202 177 169 165 173 180 198 213 237 249 250 235 226 243 260 243 243 252 263 270 278 285 291 295 296 298 294 292 292 292 292 291 293 294 296
189 185 184 184 186 191 203 201 203 208 214 208 209 217 221 219 233 253 267 262 249 240 245 238 240 244 256 263 272 283 288 293 294 293 289 288 291 292 292 293 295 297 297 298
184 181 185 184 184 181 188 190 190 191 205 214 219 227 227 231 236 240 246 245 235 235 231 238 241 245 256 270 285 293 296 293 288 291 293 293 293 293 294 294 294 295 296 298
176 174 180 179 184 184 176 162 175 187 191 183 193 203 212 225 236 242 243 239 228 225 233 238 247 259 280 288 292 290 288 286 290 291 291 291 293 293 293 294 296 297 299 300
164 171 175 179 179 181 171 178 194 188 196 198 200 207 234 243 239 235 233 232 235 241 251 268 281 284 287 285 286 284 288 290 289 288 289 292 293 294 294 297 298 299 300 301
147 159 170 180 183 183 174 172 186 183 177 187 205 229 257 246 243 247 262 269 275 278 280 282 284 283 282 280 279 286 288 288 290 292 294 293 292 292 295 296 297 299 300 301
Height
5581 5594 5602 5621 5633 5646 5654 5665 5675 5683 5689 5694 5705 5711 5720 5730 5739 5746 5752 5759 5765 5771 5777 5779 5785 5790 5792 5796 5800 5803 5805 5807 5810 5813 5814 5816 5817 5818 5818 5818 5818 5818 5817 5817
5577 5590 5599 5614 5628 5640 5651 5660 5668 5671 5679 5686 5696 5703 5710 5719 5733 5739 5745 5753 5759 5764 5771 5776 5781 5786 5789 5791 5795 5799 5800 5803 5805 5808 5809 5811 5812 5813 5813 5814 5814 5813 5812 5811
5572 5590 5596 5607 5623 5632 5641 5650 5660 5664 5671 5678 5688 5695 5699 5709 5723 5729 5735 5745 5753 5759 5765 5771 5777 5781 5784 5786 5790 5793 5796 5797 5800 5804 5804 5805 5806 5807 5808 5808 5808 5807 5806 5804
5574 5588 5598 5605 5616 5627 5637 5647 5651 5657 5661 5666 5675 5681 5690 5702 5711 5721 5729 5737 5744 5751 5759 5765 5770 5775 5779 5782 5785 5788 5790 5792 5795 5798 5799 5800 5801 5801 5801 5801 5801 5799 5798 5796
5579 5584 5592 5603 5613 5625 5633 5640 5647 5651 5654 5661 5666 5674 5683 5693 5701 5713 5724 5730 5737 5744 5752 5758 5766 5770 5774 5777 5779 5782 5785 5786 5789 5791 5793 5793 5794 5794 5793 5794 5793 5791 5789 5787
5572 5581 5596 5604 5612 5620 5631 5640 5645 5645 5648 5653 5658 5666 5675 5683 5696 5707 5717 5724 5731 5737 5745 5752 5758 5763 5767 5771 5773 5775 5778 5780 5782 5784 5785 5786 5786 5787 5786 5785 5784 5782 5780 5777
5567 5577 5585 5597 5604 5616 5626 5638 5640 5641 5641 5644 5653 5663 5670 5681 5691 5701 5711 5719 5726 5734 5740 5746 5748 5755 5760 5763 5765 5768 5770 5773 5775 5776 5777 5777 5777 5777 5776 5776 5774 5772 5769 5766
5568 5576 5581 5591 5601 5615 5629 5632 5634 5633 5634 5640 5650 5656 5663 5674 5685 5693 5702 5711 5719 5728 5733 5737 5741 5747 5751 5754 5757 5760 5763 5765 5767 5768 5768 5768 5768 5767 5767 5766 5764 5761 5759 5755
5571 5578 5582 5591 5599 5613 5624 5627 5631 5629 5632 5638 5644 5651 5660 5669 5681 5689 5697 5705 5713 5721 5725 5729 5734 5739 5742 5747 5748 5751 5754 5758 5760 5761 5760 5761 5761 5760 5759 5756 5753 5750 5747 5742
5572 5580 5586 5591 5598 5609 5619 5624 5629 5629 5634 5638 5642 5647 5654 5665 5674 5683 5690 5699 5707 5715 5720 5723 5727 5733 5737 5740 5742 5745 5749 5751 5753 5752 5753 5754 5752 5751 5748 5745 5741 5737 5734 5730
5573 5582 5590 5597 5602 5608 5616 5622 5627 5630 5634 5638 5641 5646 5652 5663 5669 5677 5684 5692 5700 5708 5713 5718 5723 5727 5731 5734 5736 5740 5742 5743 5745 5745 5745 5743 5742 5740 5737 5734 5730 5725 5723 5720
5573 5582 5588 5596 5601 5608 5616 5623 5627 5632 5636 5638 5642 5648 5651 5659 5667 5674 5681 5687 5693 5700 5706 5712 5716 5720 5722 5725 5729 5731 5734 5734 5737 5736 5734 5734 5731 5728 5726 5724 5721 5717 5714 5709
5575 5583 5589 5594 5603 5608 5617 5621 5626 5631 5635 5639 5644 5649 5652 5657 5664 5671 5677 5683 5690 5694 5699 5703 5708 5712 5714 5717 5721 5724 5726 5729 5726 5723 5725 5723 5721 5718 5715 5713 5711 5707 5703 5700
5575 5582 5588 5596 5603 5609 5617 5620 5626 5631 5637 5638 5643 5647 5653 5656 5661 5668 5673 5679 5685 5690 5695 5698 5701 5704 5707 5710 5711 5714 5717 5717 5717 5716 5715 5713 5712 5710 5706 5704 5700 5698 5694 5690
5575 5581 5589 5596 5603 5607 5614 5621 5625 5631 5637 5640 5644 5648 5653 5658 5662 5667 5672 5678 5682 5686 5691 5693 5696 5700 5703 5706 5708 5710 5710 5710 5710 5709 5708 5706 5703 5701 5699 5696 5692 5688 5683 5679
5573 5580 5587 5594 5601 5606 5613 5621 5626 5631 5636 5641 5645 5649 5655 5658 5664 5667 5672 5676 5681 5685 5688 5691 5693 5696 5698 5701 5702 5703 5703 5703 5703 5703 5701 5698 5696 5693 5690 5687 5683 5678 5674 5669
5573 5579 5587 5594 5601 5608 5616 5620 5625 5631 5636 5641 5645 5649 5654 5658 5663 5667 5670 5674 5679 5682 5684 5686 5689 5691 5694 5696 5696 5697 5697 5697 5696 5695 5694 5691 5689 5685 5682 5678 5673 5669 5664 5659
5571 5577 5585 5594 5601 5609 5616 5618 5625 5629 5634 5638 5644 5648 5653 5658 5662 5665 5669 5672 5676 5680 5681 5683 5685 5687 5689 5690 5690 5691 5691 5690 5690 5688 5686 5682 5679 5676 5672 5667 5662 5657 5652 5646
5567 5575 5584 5593 5602 5609 5614 5618 5622 5627 5633 5636 5641 5647 5652 5657 5661 5664 5668 5670 5674 5676 5679 5681 5683 5684 5685 5685 5685 5685 5685 5684 5682 5679 5676 5674 5671 5666 5660 5655 5650 5645 5640 5635
5567 5575 5585 5593 5600 5606 5612 5616 5618 5626 5632 5635 5639 5644 5650 5655 5659 5663 5665 5668 5670 5672 5674 5676 5677 5677 5678 5678 5678 5678 5677 5675 5672 5671 5667 5662 5658 5653 5648 5644 5639 5633 5627 5623
5565 5574 5583 5590 5598 5605 5610 5615 5619 5625 5634 5636 5641 5645 5650 5654 5657 5660 5662 5665 5667 5668 5670 5671 5672 5673 5674 5673 5672 5670 5668 5666 5663 5660 5655 5651 5646 5641 5637 5632 5626 5621 5616 5610
5563 5572 5582 5590 5598 5606 5611 5616 5621 5625 5628 5634 5639 5643 5647 5651 5654 5656 5658 5660 5662 5664 5665 5666 5667 5667 5666 5665 5664 5662 5660 5657 5653 5649 5644 5640 5635 5630 5624 5620 5614 5608 5601 5595
5562 5572 5582 5591 5597 5605 5610 5617 5620 5624 5628 5632 5637 5641 5644 5647 5650 5653 5654 5655 5657 5658 5660 5661 5660 5659 5658 5657 5656 5653 5649 5645 5640 5635 5632 5628 5623 5617 5612 5607 5600 5593 5586 5579
5561 5570 5580 5590 5598 5605 5611 5616 5620 5624 5629 5632 5636 5639 5641 5643 5645 5647 5648 5649 5650 5652 5653 5652 5652 5652 5652 5649 5645 5642 5638 5633 5629 5625 5620 5616 5611 5606 5599 5592 5584 5578 5572 5565
5564 5571 5580 5589 5598 5606 5611 5616 5619 5623 5627 5630 5633 5635 5638 5640 5641 5643 5644 5644 5644 5645 5646 5647 5646 5644 5641 5637 5634 5631 5627 5623 5619 5614 5609 5603 5597 5591 5584 5578 5571 5565 5558 5550
5571 5576 5584 5590 5598 5606 5611 5614 5617 5621 5624 5627 5630 5633 5635 5637 5638 5638 5638 5639 5639 5640 5639 5638 5635 5631 5628 5625 5624 5620 5616 5611 5607 5601 5594 5588 5582 5576 5570 5564 5558 5550 5543 5536